Flag for Germany Weather past 2 weeks in Delbrück, North Rhine-Westphalia, Germany

Now
48 °F

Partly sunny.


Feels Like: 43 °F
Forecast: 42 / 53 °F
Wind: 14 mph from Northwest

Location: Paderborn / Lippstadt

Current Time: Oct 22, 2014 at 5:57:17 PM

Latest Report: Oct 22, 2014 at 5:20 PM


Visibility: N/A

Pressure: 29.98 "Hg

Humidity: 66%

Dew point: 37 °F

Location of DelbrückLocation

Historic Weather in Delbrück — Graph

°F

Delbrück temperature yesterday

Maximum temperature yesterday: 54 °F (at 10:50 AM)
Minimum temperature yesterday: 45 °F (at 8:50 PM)
Average temperature yesterday: 51 °F

Past Weeks' High & Low Weather Summary

 TemperatureHumidityPressure
High72 °F (Oct 19, 1:20 PM)100% (Oct 9, 3:20 AM)30.15 "Hg (Oct 9, 3:20 AM)
Low43 °F (Oct 22, 3:50 AM)52% (Oct 14, 2:20 PM)29.47 "Hg (Oct 21, 5:20 PM)
Average56 °F80%29.85 "Hg
* Reported Oct 7 4:20 PM — Oct 22 4:20 PM, Delbrück, Weather by CustomWeather, © 2014

Note: Actual official high and low records may vary slightly from our data, if they occured in-between our weather recording intervals... More about our weather records

Advertising

Delbrück weather history for previous 24 hours

 ConditionsComfort  
Time TempWeatherWind HumidityBarometerVisibility
4:20 PM
Oct 22
48 °FPartly sunny.15 mph71%29.95 "HgN/A
3:50 PM48 °FPartly sunny.16 mph71%29.95 "HgN/A
3:20 PM46 °FSprinkles. Partly sunny.14 mph82%29.92 "HgN/A
2:50 PM46 °FSprinkles. Broken clouds.16 mph82%29.92 "HgN/A
2:20 PM46 °FSprinkles. Broken clouds.15 mph82%29.92 "HgN/A
1:50 PM46 °FSprinkles. Broken clouds.16 mph82%29.89 "HgN/A
1:20 PM46 °FSprinkles. Broken clouds.16 mph82%29.89 "HgN/A
12:50 PM45 °FSprinkles. Broken clouds.16 mph87%29.89 "Hg6 mi
12:20 PM45 °FSprinkles. Broken clouds.15 mph87%29.89 "Hg6 mi
11:50 AM45 °FSprinkles. Broken clouds.15 mph87%29.89 "Hg6 mi
11:20 AM43 °FSprinkles. Broken clouds.12 mph93%29.89 "Hg6 mi
10:50 AM43 °FSprinkles. Broken clouds.15 mph93%29.89 "Hg5 mi
10:20 AM43 °FSprinkles. Broken clouds.13 mph87%29.89 "Hg6 mi
9:50 AM43 °FSprinkles. Broken clouds.14 mph93%29.89 "Hg6 mi
9:20 AM43 °FSprinkles. Broken clouds.13 mph87%29.86 "Hg6 mi
8:50 AM43 °FSprinkles. Partly cloudy.14 mph87%29.86 "HgN/A
8:20 AM43 °FSprinkles. Passing clouds.15 mph87%29.83 "HgN/A
7:50 AM43 °FSprinkles. Partly cloudy.15 mph87%29.83 "HgN/A
7:20 AM43 °FPartly cloudy.15 mph87%29.80 "HgN/A
6:50 AM43 °FPartly cloudy.14 mph87%29.80 "HgN/A
6:20 AM43 °FPartly cloudy.15 mph87%29.80 "HgN/A
5:50 AM43 °FPartly cloudy.14 mph93%29.80 "HgN/A
5:20 AM43 °FPartly cloudy.20 mph93%29.77 "HgN/A
4:50 AM43 °FPartly cloudy.16 mph93%29.77 "HgN/A
4:20 AM43 °FLight rain. Partly cloudy.16 mph93%29.77 "HgN/A
3:50 AM43 °FLight rain. Partly cloudy.15 mph93%29.77 "HgN/A
11:50 PM
Oct 21
45 °FRain. Passing clouds.16 mph81%29.68 "HgN/A
11:20 PM45 °FPassing clouds.16 mph87%29.65 "HgN/A
10:50 PM45 °FLight rain. Partly cloudy.13 mph87%29.65 "HgN/A
10:20 PM45 °FPartly cloudy.15 mph93%29.62 "HgN/A
9:50 PM45 °FPartly cloudy.9 mph93%29.62 "HgN/A
9:20 PM46 °FLight rain. Partly cloudy.12 mph93%29.59 "HgN/A
8:50 PM45 °FLight rain. Passing clouds.14 mph93%29.56 "HgN/A
8:20 PM46 °FLight rain. Partly cloudy.15 mph93%29.56 "HgN/A
7:50 PM48 °FLight rain. Partly cloudy.12 mph94%29.53 "HgN/A
7:20 PM48 °FLight rain. Partly cloudy.13 mph94%29.53 "HgN/A
6:50 PM48 °FLight rain. Broken clouds.13 mph100%29.50 "HgN/A
6:20 PM50 °FRain. Broken clouds.17 mph94%29.50 "Hg4 mi
5:50 PM52 °FRain. Broken clouds.18 mph88%29.47 "Hg4 mi
5:20 PM52 °FLight rain. Partly sunny.16 mph88%29.47 "HgN/A
Weather by CustomWeather, © 2014

See weather overviewHow to use our weather pages